Gillette, WY

12:35 AM MDT on April 27, 2015 (GMT -0600)
Gillette-Campbell County | | Change Station
CLOSE
Current Station
Airport
Location: Gillette,
Elevation: 4364 ft
Nearby Weather Stations

Elev 4364 ft 44.34 °N, 105.54 °W | Updated 42 minutes ago

Ice Pellets
Ice Pellets
35 °F
Feels Like 27 °F
N
10
Wind Variable Wind from North

Today
High -- | Low -- °F
--% Chance of Precip.
Yesterday
High -- | Low -- °F
Precip. -- in
5:59 AM 8:02 PM
Waxing Gibbous, 62% visible
Pressure 30.24 in
Visibility 6.0 miles
Clouds Mostly Cloudy 500 ft
Overcast 900 ft
Windchill 27 °F
Dew Point 34 °F
Humidity 96%
Rainfall 0.59 in
Snow Depth Not available.
UV 0 out of 12
Pollen 6.30 out of 12
Air Quality Not available.
Flu Activity Local Activity
METAR KGCC 270553Z AUTO 35009KT 6SM BR BKN005 OVC009 02/01 A3020 RMK AO2 UPE29 SLP240 P0001 60006 T00170011 10050 20017 51016

More Conditions Fewer Conditions

Pressure 30.24 in
Visibility 6.0 miles
Clouds Mostly Cloudy 500 ft
Overcast 900 ft
Windchill 27 °F
Dew Point 34 °F
Humidity 96%
Rainfall 0.59 in
Snow Depth Not available.
UV 0 out of 12
Pollen 6.30 out of 12
Air Quality Not available.
Flu Activity Local Activity
METAR KGCC 270553Z AUTO 35009KT 6SM BR BKN005 OVC009 02/01 A3020 RMK AO2 UPE29 SLP240 P0001 60006 T00170011 10050 20017 51016

More Conditions Fewer Conditions

10-Day Weather Forecast

Almanac

Astronomy

Apr. 27, 2015 Rise Set
Actual Time
Civil Twilight
Nautical Twilight
Astronomical Twilight
Moon
Length of Visible Light
Length of Day
Tomorrow will be .
, % of the Moon is Illuminated

Today's Extremes

State Highs State Lows

Community

WunderPhotos

Upload Photos

1,817,268 photos uploaded!

WunderBlogs® & News

Nearby

Air Quality

  Air Quality AQ Index Pollutant
Not available.

Snow Depth

Station Depth Elevation

Earthquake Activity

City Distance Mag. Time & Date
Minimum magnitude displayed is 2.5.

Coastal Water Temperatures

Place Temperature

Stations

Nearby Weather Stations

Station Location Temp. Windchill Dew Point Humidity Wind Precip. Elev Updated Type